Location: Ingoldesthorpe
(52.8667°N, 0.5167°E)
Time: 22:47:44
(UTC+00:00)

Cosmos 1315 Rocket - Pass Details

Date: 19 May 2025
Orbit: 498 x 525 km, 81.2° (Epoch: 12 June)

Event Time Altitude Azimuth Distance (km) Brightness Sun altitude
Exits shadow 22:30:35 10° 217° (SW) 1,746 5.1 -14.9°
Maximum altitude 22:34:14 42° 289° (WNW) 761 3.8 -15.1°
Drops below altitude 10° 22:37:58 10° 2° (N) 1,774 6.6 -15.3°
Sets 22:40:12 0° 9° (N) 2,664 7.5 -15.4°
